Location: Ottawa
(45.4167°N, 75.7000°W)
Time: 22:26:26
(UTC-05:00)

Envisat - Pass Details

Date: 10 October 2017
Orbit: 764 x 766 km, 98.2° (Epoch: 17 December)

Event Time Altitude Azimuth Distance (km) Brightness Sun altitude
Exits shadow 19:27:31 16° 92° (E) 1,932 4.4 -11.6°
Maximum altitude 19:29:37 20° 61° (ENE) 1,713 4.3 -12.0°
Drops below altitude 10° 19:33:15 10° 15° (NNE) 2,315 5.4 -12.6°
Sets 19:36:06 0° 360° (N) 3,246 6.3 -13.1°
